Location: PSU-Greenbush Astrophysical Observatory
(37.5140°N, 94.9880°W)
Time: 05:36:22
(UTC-06:00)

Transit 2A - Pass Details

Date: 29 January 2020
Orbit: 600 x 959 km, 66.7° (Epoch: 19 February)

Event Time Altitude Azimuth Distance (km) Brightness Sun altitude
Rises 17:56:05 0° 177° (S) 2,934 9.3 -3.8°
Reaches altitude 10° 17:58:43 10° 164° (SSE) 1,990 8.2 -4.2°
Maximum altitude 18:02:18 24° 110° (ESE) 1,264 6.7 -4.9°
Drops below altitude 10° 18:05:47 10° 56° (NE) 1,944 7.5 -5.6°
Enters shadow 18:07:06 - 47° (NE) 2,393 8.0 -5.8°
Sets 18:08:20 0° 42° (NE) 2,850 - -6.0°
